Terug naar catalogus

STARLINK-34223

ActiefCommunicatieVLEO
NORAD 64336·PAYLOAD·🇺🇸 United States

Gelanceerd Jun 10, 2025 vanaf Cape Canaveral Space Force Station

Loading…

Volgende Passages (komende 24 uur)

TLE

VersSource: CelesTrak SupGP

Epoch: Sep 15, 2026, 03:44 UTC

1 64336C 25124V   26258.15604167  .00052437  00000+0  18992-2 0  2588
2 64336  43.0011 127.9290 0001505 275.5897 328.5703 15.27554316    15

Volg STARLINK-34223 in realtime met AllMySat

Download on the App Store